Regional Weather Roundup
Issued by NWS Albany, NY

Home | Current Version | Previous Version | Graphics & Text | Print | Product List | Glossary Off
Versions: 1 2 3 4 5 6 7 8 9 10 11 12 13 14 15 16 17 18 19 20 21 22 23 24 25 26 27 28 29 30 31 32 33 34 35 36 37 38 39 40 41 42 43 44 45 46 47 48 49 50

000
ASUS41 KALY 200010
RWRALY

NEW YORK STATE HOURLY WEATHER ROUNDUP
NATIONAL WEATHER SERVICE ALBANY NY
800 PM EDT TUE AUG 19 2014

NOTE: "FAIR" INDICATES FEW OR NO CLOUDS BELOW 12,000 FEET WITH NO
SIGNIFICANT WEATHER AND/OR NO OBSTRUCTIONS TO VISIBILITY.

NYZ032-033-038>043-046>054-057>066-NYZ062>081-200100-
EAST


CITY           SKY/WX    TMP DP  RH WIND       PRES   REMARKS
ALBANY         PTCLDY    72  51  47 CALM      29.91R
GLENS FALLS    PTCLDY    63  56  78 CALM      29.91S
POUGHKEEPSIE   CLEAR     71  60  68 E3        29.88R
NEWBURGH       PTCLDY    77  57  50 VRB6      29.90S
MONTGOMERY     CLEAR     71  59  65 CALM      29.89R
WHITE PLAINS   CLEAR     69  60  73 SE3       29.91R
ISLIP          PTCLDY    71  64  78 SE6       29.90R
NEW YORK CITY  PTCLDY    74  62  66 S10       29.90R
CENTRAL PARK   CLEAR     74  62  66 VRB7      29.93R
$$

NYZ005>009-017-018-044>046-055-056-200100-
CENTRAL


CITY           SKY/WX    TMP DP  RH WIND       PRES   REMARKS
FULTON         CLEAR     70  64  81 NE3       29.86R
SYRACUSE       MOCLDY    73  62  68 NE6       29.86R
ROME           PTCLDY    71  61  70 E6        29.89R
ELMIRA         CLEAR     73  66  78 CALM      29.87R
BINGHAMTON     MOCLDY    72  61  68 SW5       29.92R
MONTICELLO     CLEAR     70  57  64 CALM      29.94R
$$

NYZ026>034-041>043-200100-
NORTH


CITY           SKY/WX    TMP DP  RH WIND       PRES   REMARKS
WATERTOWN      PTCLDY    69  55  60 NE6       29.87R
FORT DRUM      NOT AVBL
MASSENA        CLEAR     64  55  72 NE5       29.91S
SARANAC LAKE   CLEAR     61  52  72 NE7       29.92R
PLATTSBURGH    CLEAR     62  56  80 CALM      29.92R
$$

NYZ001>004-010>016-019>021-200100-
WEST


CITY           SKY/WX    TMP DP  RH WIND       PRES   REMARKS
NIAGARA FALLS  PTCLDY    72  64  76 NE5       29.84S
BUFFALO        PTCLDY    75  43  31 W5        29.85R
DUNKIRK        CLEAR     71  57  61 E3        29.85R
JAMESTOWN      CLEAR     73  59  60 E3        29.89R
WELLSVILLE     MOCLDY    73  61  65 CALM      29.93R
ROCHESTER      PTCLDY    70  60  70 N7        29.86R
PENN YAN       MOCLDY    74  67  78 NE3       29.87R
$$

             KEY
       WCI = WIND CHILL INDEX
       VSB = VISIBILITY
       HX  = HEAT INDEX
$$


USA.gov is the U.S. government's official web portal to all federal, state and local government web resources and services.